SCP
0 0 -0 0 -0 -0 -0 0 0 0 0 0 0 0 0 0 0 0 0 0 0 0 0 0 0 0 0 0 0 0 0 0 0 0 0 0 0 0 0 0 0 0 0 0
0 0 0 0 -0 -0 -0 0 0 0 0 0 0 0 0 0 0 0 0 0 0 0 0 0 0 0 0 0 0 0 0 0 0 0 0 0 0 0 0 0 0 0 0 0
0 0 -0 0 -0 -0 0 0 0 0 0 0 0 0 -0 -0 0 0 0 0 0 0 0 0 0 0 0 0 0 0 0 0 0 0 0 0 0 0 0 0 0 0 0 0
-0 0 -0 0 -0 0 0 0 -0 0 -0 -0 -0 0 -0 -0 0 0 0 0 0 0 0 0 0 0 0 0 0 0 0 0 0 0 0 0 0 0 0 0 0 0 0 0
-0 0 -0 0 0 -0 0 0 0 -0 -0 -0 -0 -0 0 -0 -0 -0 0 0 0 0 0 0 0 0 0 0 0 0 0 0 0 0 0 0 0 0 0 0 0 0 0 0
0 0 0 0 -0 0 -0 -0 -0 -0 -0 -0 -0 0 -0 -0 -0 -0 -0 0 0 0 0 0 0 0 0 0 0 0 0 0 0 0 0 0 0 0 0 0 0 0 0 0
-0 0 -0 0 -0 -0 -0 0 -0 0 0 0 0 0 -0 0 0 0 0 0 0 0 0 0 0 0 0 0 0 0 0 0 0 0 0 0 0 0 0 0 0 0 0 0
-0 0 0 0 -0 0 -0 -0 0 0 0 0 0 0 0 0 0 0 0 0 0 0 0 0 0 0 0 0 0 0 0 0 0 0 0 0 0 0 0 0 0 0 0 0
-0 -0 0 -0 -0 -0 -0 -0 -0 -0 -0 0 0 0 0 0 0 0 0 0 0 0 0 0 0 0 0 0 0 0 0 0 0 0 0 0 0 0 0 0 0 0 0 0
0 0 0 0 0 0 -0 -0 0 0 0 -0 -0 -0 0 0 0 0 0 0 0 0 0 0 0 0 0 0 0 0 0 0 0 0 0 0 0 0 0 0 0 0 0 0
0 0 0 0 0 0 0 0 0 0 -0 -0 -0 -0 -0 -0 0 -0 -0 -0 -0 0 0 0 0 0 0 0 0 0 0 0 0 0 0 0 0 0 0 0 0 0 0 0
0 0 0 0 0 0 -0 -0 -0 -0 -0 -0 -0 -0 -0 -0 -0 -0 -0 -0 -0 -0 -0 0 0 0 0 0 0 0 0 0 0 0 0 0 0 0 0 0 0 0 0 0
0 0 0 0 0 0 -0 -0 -0 -0 -0 -0 -0 -0 -0 -0 -0 -0 -0 -0 -0 -0 -0 0 0 0 0 0 0 0 0 0 0 0 0 0 0 0 0 0 0 0 0 0
0 0 0 0 -0 -0 -0 -0 -0 -0 -0 -0 -0 -0 -0 -0 -0 -0 -0 -0 -0 -0 0 0 0 0 0 0 0 0 0 0 0 0 0 0 0 0 0 0 0 0 0 0
0 0 0 -0 -0 0 0 -0 -0 -0 -0 -0 0 0 0 -0 -0 -0 -0 0 0 0 0 0 0 0 0 0 0 0 0 0 0 0 0 0 0 0 0 0 0 0 0 0
0 0 -0 -0 0 0 -0 0 0 0 0 0 0 0 0 0 0 0 0 0 0 0 0 0 0 0 0 0 0 0 0 0 0 0 0 0 0 0 0 0 0 0 0 0
-0 -0 -0 -0 0 0 0 0 0 0 0 0 0 0 0 0 0 0 0 0 0 0 0 0 0 0 0 0 0 0 0 0 0 0 0 0 0 0 0 0 0 0 0 0
-0 -0 -0 -0 0 0 0 0 0 0 0 0 0 0 0 0 0 0 0 0 0 0 0 0 0 0 0 0 0 0 0 0 0 0 0 0 0 0 0 0 0 0 0 0
-0 -0 0 0 0 0 0 0 0 0 0 0 0 0 0 0 0 0 0 0 0 0 0 0 0 0 0 0 0 0 0 0 0 0 0 0 0 0 0 0 0 0 0 0
-0 0 0 0 0 0 0 0 0 0 0 0 0 0 0 0 0 0 0 0 0 0 0 0 0 0 0 0 0 0 0 0 0 0 0 0 0 0 0 0 0 0 0 0
0 0 0 0 0 0 0 0 0 0 0 0 0 0 0 0 0 0 0 0 0 0 0 0 0 0 0 0 0 0 0 0 0 0 0 0 0 0 0 0 0 0 0 0
0 0 0 0 0 0 0 0 0 0 0 0 0 0 0 0 0 0 0 0 0 0 0 0 0 0 0 0 0 0 0 0 0 0 0 0 0 0 0 0 0 0 0 0
0 0 0 0 0 0 0 0 0 0 0 0 0 0 0 0 0 0 0 0 0 0 0 0 0 0 0 0 0 0 0 0 0 0 0 0 0 0 0 0 0 0 0 0
0 0 0 0 0 0 0 0 0 0 0 0 0 0 0 0 0 0 0 0 0 0 0 0 0 0 0 0 0 0 0 0 0 0 0 0 0 0 0 0 0 0 0 0
0 0 0 0 0 0 0 0 0 0 0 0 0 0 0 0 0 0 0 0 0 0 0 0 0 0 0 0 0 0 0 0 0 0 0 0 0 0 0 0 0 0 0 0
0 0 0 0 0 0 0 0 0 0 0 0 0 0 0 0 0 0 0 0 0 0 0 0 0 0 0 0 0 0 0 0 0 0 0 0 0 0 0 0 0 0 0 0
0 0 0 0 0 0 0 0 0 0 0 0 0 0 0 0 0 0 0 0 0 0 0 0 0 0 0 0 0 0 0 0 0 0 0 0 0 0 0 0 0 0 0 0
Wind_Speed_500mb
22 31 9 32 40 33 28 15 12 9 11 21 19 16 19 26 30 35 40 40 39 34 28 25 24 23 18 9 0 11 21 27 35 40 43 48 54 62 70 72 75 78 78 75
24 13 11 25 33 36 30 26 18 11 13 28 18 9 34 40 39 38 42 41 39 29 22 19 19 21 21 18 13 6 6 16 24 31 37 44 51 58 66 73 76 76 73 68
8 11 12 6 19 23 14 28 13 22 15 25 16 11 29 44 45 46 43 40 39 30 19 15 13 13 12 12 12 9 7 8 15 23 32 41 48 54 60 65 67 68 67 66
11 15 7 6 13 10 16 20 22 12 22 24 23 2 26 40 38 40 41 42 38 28 17 13 11 9 9 8 5 6 8 14 19 24 30 37 43 49 55 56 56 57 56 57
7 8 5 4 11 10 8 8 22 19 24 21 37 6 10 56 47 42 43 40 34 26 18 13 9 8 6 3 1 5 8 13 18 22 28 34 40 44 45 47 49 49 49 52
5 5 7 6 18 16 4 1 20 20 22 23 29 6 12 50 39 38 36 35 33 28 21 14 11 8 6 3 2 5 10 13 18 24 25 30 32 36 38 40 41 42 42 43
7 2 2 7 23 11 3 7 21 20 22 24 13 11 33 33 34 32 34 33 30 28 26 21 16 12 7 3 0 3 6 9 13 17 22 26 31 33 36 39 41 43 43 43
4 4 2 20 1 4 6 11 14 19 20 23 23 26 29 31 32 32 34 31 29 26 25 20 15 11 7 5 2 0 4 7 11 14 17 20 23 26 29 32 34 35 36 36
4 5 3 8 6 3 8 11 8 13 18 21 21 23 24 28 29 29 31 31 28 27 24 20 16 12 10 6 4 3 4 5 7 9 13 17 19 21 24 27 28 30 32 33
3 6 6 6 3 9 7 7 7 9 13 15 16 19 21 24 26 29 31 31 27 24 23 21 19 15 11 8 6 4 3 3 5 8 11 13 15 17 19 20 23 27 29 29
7 5 7 12 6 3 3 3 7 7 8 9 11 16 22 23 28 30 31 30 29 27 23 20 17 14 10 7 4 2 2 2 4 7 9 11 12 14 16 18 22 24 25 26
5 12 4 5 8 4 1 1 4 6 4 12 16 21 22 24 27 29 31 30 28 26 23 20 18 16 14 10 5 3 3 6 8 9 11 13 16 19 22 24 23 23 24 24
7 17 11 11 8 6 7 7 7 7 10 12 17 20 23 25 28 29 29 29 28 29 28 25 22 20 17 14 11 9 8 9 9 11 13 15 15 17 19 21 23 24 25 25
19 15 9 18 11 13 13 11 10 9 8 9 12 16 20 24 27 31 34 35 35 33 31 28 25 23 21 18 16 15 13 13 10 10 12 13 14 16 17 18 20 22 24 25
27 24 11 16 20 18 16 14 12 8 4 2 8 15 21 27 32 37 41 45 46 43 39 40 36 27 29 24 21 20 22 22 21 19 18 18 19 19 19 20 21 22 23 23
34 26 22 23 23 22 19 17 15 13 10 10 14 21 28 34 40 45 47 51 54 54 50 48 45 37 40 35 29 27 25 25 26 24 25 26 25 25 26 27 28 28 29 29
34 23 29 30 30 27 22 21 19 17 16 19 24 30 35 41 48 53 54 52 45 42 40 42 41 38 38 41 40 34 34 34 35 34 34 32 32 32 32 33 34 35 35 34
29 24 30 25 28 26 25 23 23 21 23 28 34 39 43 48 54 58 55 48 40 34 31 32 32 33 32 31 36 40 41 39 40 42 43 42 41 41 41 41 41 41 40 39
32 20 26 26 24 23 24 24 24 27 29 35 41 45 48 53 55 55 49 44 41 43 35 34 35 34 28 26 26 29 37 42 45 45 44 44 45 45 45 46 47 47 47 49
30 28 26 22 19 21 23 25 28 31 35 41 45 51 56 56 52 47 47 50 45 46 43 40 37 32 31 31 33 31 30 31 36 42 47 50 52 53 53 53 54 56 56 57
31 28 21 18 18 19 22 26 30 33 36 41 49 55 61 56 48 50 54 61 48 46 42 40 40 38 40 43 46 45 43 43 43 41 41 42 44 47 49 51 53 54 55 55
30 21 17 15 13 16 21 27 31 33 39 46 51 53 55 56 56 59 53 54 50 44 44 41 40 40 43 45 47 48 49 50 50 50 50 48 48 49 49 48 48 46 45 45
23 18 15 11 13 20 28 29 34 41 48 52 49 48 55 60 59 61 65 49 48 44 44 41 36 37 39 40 39 39 40 41 43 45 46 47 48 49 50 50 49 48 48 48
25 17 12 14 19 29 32 35 42 47 51 50 49 49 53 60 61 52 47 46 42 42 40 37 37 35 36 36 37 37 36 36 36 37 38 39 40 40 41 41 42 42 43 44
20 14 14 19 27 34 40 45 50 48 50 54 53 50 45 43 46 46 44 43 39 36 33 28 29 30 30 30 30 31 31 32 31 32 33 34 33 32 31 31 31 31 32 32
15 14 17 25 33 38 44 49 51 53 55 60 58 49 43 38 37 38 35 31 30 29 28 25 23 21 20 19 20 20 22 22 22 23 24 24 25 26 25 24 23 22 22 23
13 15 23 30 35 40 43 47 52 55 53 52 52 41 37 32 28 27 26 26 25 25 25 24 23 22 21 20 19 18 17 16 16 16 16 16 15 15 16 17 16 16 16 15
Wind_Direction_500mb
274 289 286 29 6 15 49 26 48 68 76 9 1 13 6 7 9 11 9 8 10 8 17 26 31 27 18 13 330 230 216 217 222 224 227 227 223 221 219 218 215 211 205 202
299 239 51 38 17 23 26 14 40 31 62 3 354 349 16 16 14 13 7 0 5 10 15 22 34 34 32 28 36 64 223 216 219 217 215 216 216 214 211 204 201 201 200 202
282 329 300 352 4 41 44 31 345 34 333 334 350 30 22 10 9 6 358 358 3 7 9 12 20 38 36 39 41 61 116 160 199 202 204 203 201 199 197 196 196 197 197 199
295 310 54 113 35 96 87 35 20 6 352 347 339 109 36 19 10 3 357 3 7 11 17 15 21 24 34 39 54 88 128 144 161 168 172 175 178 180 182 185 188 190 191 195
311 351 116 119 13 333 348 26 11 355 354 344 340 184 48 8 8 4 7 11 12 15 18 17 19 20 17 356 209 174 182 174 170 173 177 177 179 182 185 187 189 193 197 202
321 328 9 13 328 321 299 230 5 360 352 351 358 38 4 351 357 6 16 21 26 29 28 29 31 26 14 347 236 200 204 200 192 191 188 190 193 193 194 197 201 204 207 208
322 325 231 336 318 321 261 355 347 351 346 352 9 343 320 351 1 10 16 21 26 30 33 33 29 24 18 27 23 192 202 207 205 201 201 199 201 200 201 201 203 204 206 209
301 303 317 358 312 33 348 322 329 341 344 341 341 346 358 2 6 10 18 23 26 25 25 24 24 22 20 13 36 265 215 208 202 198 200 202 204 205 204 204 204 204 204 205
270 321 77 36 96 336 284 278 323 331 339 343 343 346 358 2 6 10 17 20 22 23 20 17 16 11 359 360 348 309 263 234 215 202 197 194 195 198 200 200 199 204 204 204
256 175 181 149 188 349 334 302 330 345 346 354 345 345 13 13 9 16 19 17 16 18 20 23 23 22 17 2 346 331 303 250 206 188 187 186 187 186 190 194 197 201 202 200
254 182 153 210 210 308 290 337 34 24 2 6 15 10 27 19 23 20 22 21 16 15 12 9 9 7 6 0 350 301 235 213 211 204 196 193 187 188 191 200 201 205 204 201
241 155 177 163 214 280 257 65 76 89 69 43 42 39 36 30 27 23 20 14 11 8 4 1 355 344 339 323 301 280 245 210 206 211 211 203 201 204 205 201 202 200 193 191
175 185 186 193 228 201 178 160 136 104 81 67 50 40 30 21 14 10 5 1 359 357 355 352 347 338 329 315 299 267 250 244 225 212 207 205 203 197 198 198 195 186 176 177
193 179 196 201 192 184 169 167 151 128 97 66 40 24 14 5 358 351 344 340 336 334 331 329 328 324 316 305 289 272 261 247 235 217 208 205 201 200 196 191 191 191 193 191
195 201 197 175 184 176 177 178 171 177 197 340 356 350 346 343 341 339 333 325 320 316 312 305 302 304 295 291 281 270 262 254 253 248 235 223 215 212 212 212 212 211 209 207
192 200 200 195 190 190 192 197 206 225 250 289 314 321 323 325 327 327 325 318 314 311 306 299 291 286 280 280 274 267 261 252 252 251 250 247 241 234 228 224 224 225 227 225
175 197 201 202 198 200 205 212 225 243 269 294 304 310 315 317 319 321 322 319 318 315 313 307 306 298 283 272 270 266 257 253 251 252 251 254 252 249 249 247 242 237 237 236
201 209 203 201 203 211 221 232 247 266 287 296 302 307 312 316 319 321 321 320 320 319 319 312 312 310 302 287 270 263 261 259 254 253 254 254 253 253 252 252 251 250 248 245
203 196 194 204 213 225 237 250 268 283 295 300 304 308 313 318 319 319 317 317 318 317 316 303 300 302 296 289 286 273 263 260 259 260 258 257 255 255 255 255 255 254 254 254
205 205 202 215 234 249 254 268 280 293 300 303 306 312 315 318 318 316 313 313 317 316 307 303 298 293 283 281 284 281 274 268 262 259 259 260 261 262 263 261 261 261 262 263
202 201 210 236 256 270 280 289 297 303 304 307 311 315 315 317 318 315 314 313 323 312 305 301 295 288 282 279 279 278 276 273 270 267 265 264 263 262 262 262 262 262 262 262
191 198 226 249 274 290 305 308 307 307 309 312 313 314 312 314 315 312 312 312 313 308 304 301 298 292 285 279 276 274 273 272 271 270 269 268 267 265 264 263 263 262 262 261
192 215 233 261 292 316 321 314 310 313 314 314 316 316 314 314 314 313 314 319 314 312 307 307 301 293 289 286 284 281 278 275 273 271 269 267 266 264 263 263 261 260 259 258
198 214 238 276 306 321 318 310 314 318 316 315 318 318 315 312 310 315 312 314 314 310 309 306 300 295 290 288 286 284 281 279 276 275 273 271 268 267 265 264 262 259 257 256
203 227 264 299 315 314 314 318 320 320 317 316 318 321 319 315 312 318 317 318 318 316 316 313 307 303 302 299 295 292 289 286 283 277 274 272 270 267 265 263 261 258 255 252
220 254 291 306 310 315 320 321 320 323 321 320 323 330 329 326 322 322 326 329 330 332 335 336 333 329 326 321 316 312 307 303 298 291 285 279 272 266 260 254 250 247 245 242
251 289 301 307 315 321 322 322 321 322 325 325 326 336 334 335 338 339 340 341 341 341 339 337 334 332 329 326 323 318 313 308 304 301 295 286 276 267 254 243 237 233 229 227
Wind_Speed_850mb
22 31 9 32 40 33 28 15 12 9 11 21 19 16 19 26 30 35 40 40 39 34 28 25 24 23 18 9 0 11 21 27 35 40 43 48 54 62 70 72 75 78 78 75
24 13 11 25 33 36 30 26 18 11 13 28 18 9 34 40 39 38 42 41 39 29 22 19 19 21 21 18 13 6 6 16 24 31 37 44 51 58 66 73 76 76 73 68
8 11 12 6 19 23 14 28 13 22 15 25 16 11 29 44 45 46 43 40 39 30 19 15 13 13 12 12 12 9 7 8 15 23 32 41 48 54 60 65 67 68 67 66
11 15 7 6 13 10 16 20 22 12 22 24 23 2 26 40 38 40 41 42 38 28 17 13 11 9 9 8 5 6 8 14 19 24 30 37 43 49 55 56 56 57 56 57
7 8 5 4 11 10 8 8 22 19 24 21 37 6 10 56 47 42 43 40 34 26 18 13 9 8 6 3 1 5 8 13 18 22 28 34 40 44 45 47 49 49 49 52
5 5 7 6 18 16 4 1 20 20 22 23 29 6 12 50 39 38 36 35 33 28 21 14 11 8 6 3 2 5 10 13 18 24 25 30 32 36 38 40 41 42 42 43
7 2 2 7 23 11 3 7 21 20 22 24 13 11 33 33 34 32 34 33 30 28 26 21 16 12 7 3 0 3 6 9 13 17 22 26 31 33 36 39 41 43 43 43
4 4 2 20 1 4 6 11 14 19 20 23 23 26 29 31 32 32 34 31 29 26 25 20 15 11 7 5 2 0 4 7 11 14 17 20 23 26 29 32 34 35 36 36
4 5 3 8 6 3 8 11 8 13 18 21 21 23 24 28 29 29 31 31 28 27 24 20 16 12 10 6 4 3 4 5 7 9 13 17 19 21 24 27 28 30 32 33
3 6 6 6 3 9 7 7 7 9 13 15 16 19 21 24 26 29 31 31 27 24 23 21 19 15 11 8 6 4 3 3 5 8 11 13 15 17 19 20 23 27 29 29
7 5 7 12 6 3 3 3 7 7 8 9 11 16 22 23 28 30 31 30 29 27 23 20 17 14 10 7 4 2 2 2 4 7 9 11 12 14 16 18 22 24 25 26
5 12 4 5 8 4 1 1 4 6 4 12 16 21 22 24 27 29 31 30 28 26 23 20 18 16 14 10 5 3 3 6 8 9 11 13 16 19 22 24 23 23 24 24
7 17 11 11 8 6 7 7 7 7 10 12 17 20 23 25 28 29 29 29 28 29 28 25 22 20 17 14 11 9 8 9 9 11 13 15 15 17 19 21 23 24 25 25
19 15 9 18 11 13 13 11 10 9 8 9 12 16 20 24 27 31 34 35 35 33 31 28 25 23 21 18 16 15 13 13 10 10 12 13 14 16 17 18 20 22 24 25
27 24 11 16 20 18 16 14 12 8 4 2 8 15 21 27 32 37 41 45 46 43 39 40 36 27 29 24 21 20 22 22 21 19 18 18 19 19 19 20 21 22 23 23
34 26 22 23 23 22 19 17 15 13 10 10 14 21 28 34 40 45 47 51 54 54 50 48 45 37 40 35 29 27 25 25 26 24 25 26 25 25 26 27 28 28 29 29
34 23 29 30 30 27 22 21 19 17 16 19 24 30 35 41 48 53 54 52 45 42 40 42 41 38 38 41 40 34 34 34 35 34 34 32 32 32 32 33 34 35 35 34
29 24 30 25 28 26 25 23 23 21 23 28 34 39 43 48 54 58 55 48 40 34 31 32 32 33 32 31 36 40 41 39 40 42 43 42 41 41 41 41 41 41 40 39
32 20 26 26 24 23 24 24 24 27 29 35 41 45 48 53 55 55 49 44 41 43 35 34 35 34 28 26 26 29 37 42 45 45 44 44 45 45 45 46 47 47 47 49
30 28 26 22 19 21 23 25 28 31 35 41 45 51 56 56 52 47 47 50 45 46 43 40 37 32 31 31 33 31 30 31 36 42 47 50 52 53 53 53 54 56 56 57
31 28 21 18 18 19 22 26 30 33 36 41 49 55 61 56 48 50 54 61 48 46 42 40 40 38 40 43 46 45 43 43 43 41 41 42 44 47 49 51 53 54 55 55
30 21 17 15 13 16 21 27 31 33 39 46 51 53 55 56 56 59 53 54 50 44 44 41 40 40 43 45 47 48 49 50 50 50 50 48 48 49 49 48 48 46 45 45
23 18 15 11 13 20 28 29 34 41 48 52 49 48 55 60 59 61 65 49 48 44 44 41 36 37 39 40 39 39 40 41 43 45 46 47 48 49 50 50 49 48 48 48
25 17 12 14 19 29 32 35 42 47 51 50 49 49 53 60 61 52 47 46 42 42 40 37 37 35 36 36 37 37 36 36 36 37 38 39 40 40 41 41 42 42 43 44
20 14 14 19 27 34 40 45 50 48 50 54 53 50 45 43 46 46 44 43 39 36 33 28 29 30 30 30 30 31 31 32 31 32 33 34 33 32 31 31 31 31 32 32
15 14 17 25 33 38 44 49 51 53 55 60 58 49 43 38 37 38 35 31 30 29 28 25 23 21 20 19 20 20 22 22 22 23 24 24 25 26 25 24 23 22 22 23
13 15 23 30 35 40 43 47 52 55 53 52 52 41 37 32 28 27 26 26 25 25 25 24 23 22 21 20 19 18 17 16 16 16 16 16 15 15 16 17 16 16 16 15
Wind_Direction_850mb
274 289 286 29 6 15 49 26 48 68 76 9 1 13 6 7 9 11 9 8 10 8 17 26 31 27 18 13 330 230 216 217 222 224 227 227 223 221 219 218 215 211 205 202
299 239 51 38 17 23 26 14 40 31 62 3 354 349 16 16 14 13 7 0 5 10 15 22 34 34 32 28 36 64 223 216 219 217 215 216 216 214 211 204 201 201 200 202
282 329 300 352 4 41 44 31 345 34 333 334 350 30 22 10 9 6 358 358 3 7 9 12 20 38 36 39 41 61 116 160 199 202 204 203 201 199 197 196 196 197 197 199
295 310 54 113 35 96 87 35 20 6 352 347 339 109 36 19 10 3 357 3 7 11 17 15 21 24 34 39 54 88 128 144 161 168 172 175 178 180 182 185 188 190 191 195
311 351 116 119 13 333 348 26 11 355 354 344 340 184 48 8 8 4 7 11 12 15 18 17 19 20 17 356 209 174 182 174 170 173 177 177 179 182 185 187 189 193 197 202
321 328 9 13 328 321 299 230 5 360 352 351 358 38 4 351 357 6 16 21 26 29 28 29 31 26 14 347 236 200 204 200 192 191 188 190 193 193 194 197 201 204 207 208
322 325 231 336 318 321 261 355 347 351 346 352 9 343 320 351 1 10 16 21 26 30 33 33 29 24 18 27 23 192 202 207 205 201 201 199 201 200 201 201 203 204 206 209
301 303 317 358 312 33 348 322 329 341 344 341 341 346 358 2 6 10 18 23 26 25 25 24 24 22 20 13 36 265 215 208 202 198 200 202 204 205 204 204 204 204 204 205
270 321 77 36 96 336 284 278 323 331 339 343 343 346 358 2 6 10 17 20 22 23 20 17 16 11 359 360 348 309 263 234 215 202 197 194 195 198 200 200 199 204 204 204
256 175 181 149 188 349 334 302 330 345 346 354 345 345 13 13 9 16 19 17 16 18 20 23 23 22 17 2 346 331 303 250 206 188 187 186 187 186 190 194 197 201 202 200
254 182 153 210 210 308 290 337 34 24 2 6 15 10 27 19 23 20 22 21 16 15 12 9 9 7 6 0 350 301 235 213 211 204 196 193 187 188 191 200 201 205 204 201
241 155 177 163 214 280 257 65 76 89 69 43 42 39 36 30 27 23 20 14 11 8 4 1 355 344 339 323 301 280 245 210 206 211 211 203 201 204 205 201 202 200 193 191
175 185 186 193 228 201 178 160 136 104 81 67 50 40 30 21 14 10 5 1 359 357 355 352 347 338 329 315 299 267 250 244 225 212 207 205 203 197 198 198 195 186 176 177
193 179 196 201 192 184 169 167 151 128 97 66 40 24 14 5 358 351 344 340 336 334 331 329 328 324 316 305 289 272 261 247 235 217 208 205 201 200 196 191 191 191 193 191
195 201 197 175 184 176 177 178 171 177 197 340 356 350 346 343 341 339 333 325 320 316 312 305 302 304 295 291 281 270 262 254 253 248 235 223 215 212 212 212 212 211 209 207
192 200 200 195 190 190 192 197 206 225 250 289 314 321 323 325 327 327 325 318 314 311 306 299 291 286 280 280 274 267 261 252 252 251 250 247 241 234 228 224 224 225 227 225
175 197 201 202 198 200 205 212 225 243 269 294 304 310 315 317 319 321 322 319 318 315 313 307 306 298 283 272 270 266 257 253 251 252 251 254 252 249 249 247 242 237 237 236
201 209 203 201 203 211 221 232 247 266 287 296 302 307 312 316 319 321 321 320 320 319 319 312 312 310 302 287 270 263 261 259 254 253 254 254 253 253 252 252 251 250 248 245
203 196 194 204 213 225 237 250 268 283 295 300 304 308 313 318 319 319 317 317 318 317 316 303 300 302 296 289 286 273 263 260 259 260 258 257 255 255 255 255 255 254 254 254
205 205 202 215 234 249 254 268 280 293 300 303 306 312 315 318 318 316 313 313 317 316 307 303 298 293 283 281 284 281 274 268 262 259 259 260 261 262 263 261 261 261 262 263
202 201 210 236 256 270 280 289 297 303 304 307 311 315 315 317 318 315 314 313 323 312 305 301 295 288 282 279 279 278 276 273 270 267 265 264 263 262 262 262 262 262 262 262
191 198 226 249 274 290 305 308 307 307 309 312 313 314 312 314 315 312 312 312 313 308 304 301 298 292 285 279 276 274 273 272 271 270 269 268 267 265 264 263 263 262 262 261
192 215 233 261 292 316 321 314 310 313 314 314 316 316 314 314 314 313 314 319 314 312 307 307 301 293 289 286 284 281 278 275 273 271 269 267 266 264 263 263 261 260 259 258
198 214 238 276 306 321 318 310 314 318 316 315 318 318 315 312 310 315 312 314 314 310 309 306 300 295 290 288 286 284 281 279 276 275 273 271 268 267 265 264 262 259 257 256
203 227 264 299 315 314 314 318 320 320 317 316 318 321 319 315 312 318 317 318 318 316 316 313 307 303 302 299 295 292 289 286 283 277 274 272 270 267 265 263 261 258 255 252
220 254 291 306 310 315 320 321 320 323 321 320 323 330 329 326 322 322 326 329 330 332 335 336 333 329 326 321 316 312 307 303 298 291 285 279 272 266 260 254 250 247 245 242
251 289 301 307 315 321 322 322 321 322 325 325 326 336 334 335 338 339 340 341 341 341 339 337 334 332 329 326 323 318 313 308 304 301 295 286 276 267 254 243 237 233 229 227